Time,TemperatureF,DewpointF,PressureIn,WindDirection,WindDirectionDegrees,WindSpeedMPH,WindSpeedGustMPH,Humidity,HourlyPrecipIn,Conditions,Clouds,dailyrainin,SoftwareType,DateUTC
2013-04-29 00:02:00,53.0,52.0,-100.00,SW,215,0.0,0.0,99,-99.99,,,-99.99,,2013-04-29 05:02:00,
2013-04-29 00:12:00,53.0,52.0,-100.00,SW,215,0.0,0.0,99,-99.99,,,-99.99,,2013-04-29 05:12:00,
2013-04-29 00:22:00,52.0,52.0,-100.00,SW,220,0.0,0.0,99,-99.99,,,-99.99,,2013-04-29 05:22:00,
2013-04-29 00:32:00,52.0,52.0,-100.00,SW,220,0.0,0.0,99,-99.99,,,-99.99,,2013-04-29 05:32:00,
2013-04-29 00:42:00,52.0,52.0,-100.00,SW,215,0.0,0.0,99,-99.99,,,-99.99,,2013-04-29 05:42:00,
2013-04-29 00:52:00,52.0,52.0,-100.00,SW,220,0.0,0.0,99,-99.99,,,-99.99,,2013-04-29 05:52:00,
2013-04-29 01:02:00,52.0,52.0,-100.00,SW,220,0.0,0.0,99,-99.99,,,-99.99,,2013-04-29 06:02:00,
2013-04-29 01:11:00,51.0,51.0,-100.00,SSW,205,0.0,0.0,99,-99.99,,,-99.99,,2013-04-29 06:11:00,
2013-04-29 01:21:00,51.0,51.0,-100.00,SSW,210,0.0,0.0,99,-99.99,,,-99.99,,2013-04-29 06:21:00,
2013-04-29 01:32:00,51.0,51.0,-100.00,SSW,210,0.0,0.0,99,-99.99,,,-99.99,,2013-04-29 06:32:00,
2013-04-29 01:42:00,51.0,51.0,-100.00,SW,215,0.0,0.0,99,-99.99,,,-99.99,,2013-04-29 06:42:00,
2013-04-29 01:52:00,51.0,50.0,-100.00,SSW,210,0.0,0.0,99,-99.99,,,-99.99,,2013-04-29 06:52:00,
2013-04-29 02:01:00,51.0,50.0,-100.00,SSW,210,0.0,0.0,99,-99.99,,,-99.99,,2013-04-29 07:01:00,
2013-04-29 02:11:00,50.0,50.0,-100.00,SSW,200,0.0,0.0,99,-99.99,,,-99.99,,2013-04-29 07:11:00,
2013-04-29 02:21:00,50.0,50.0,-100.00,SSW,205,0.0,0.0,99,-99.99,,,-99.99,,2013-04-29 07:21:00,
2013-04-29 02:32:00,50.0,50.0,-100.00,SSW,205,0.0,0.0,99,-99.99,,,-99.99,,2013-04-29 07:32:00,
2013-04-29 02:42:00,50.0,49.0,-100.00,South,185,0.0,0.0,99,-99.99,,,-99.99,,2013-04-29 07:42:00,
2013-04-29 02:52:00,49.0,49.0,-100.00,SSW,210,0.0,0.0,99,-99.99,,,-99.99,,2013-04-29 07:52:00,
2013-04-29 03:03:00,49.0,49.0,-100.00,SSW,210,0.0,0.0,99,-99.99,,,-99.99,,2013-04-29 08:03:00,
2013-04-29 03:11:00,49.0,48.0,-100.00,South,175,0.0,0.0,99,-99.99,,,-99.99,,2013-04-29 08:11:00,
2013-04-29 03:21:00,49.0,48.0,-100.00,South,190,0.0,0.0,99,-99.99,,,-99.99,,2013-04-29 08:21:00,
2013-04-29 03:32:00,49.0,48.0,-100.00,South,190,0.0,0.0,99,-99.99,,,-99.99,,2013-04-29 08:32:00,
2013-04-29 03:42:00,49.0,48.0,-100.00,South,190,0.0,0.0,99,-99.99,,,-99.99,,2013-04-29 08:42:00,
2013-04-29 03:52:00,49.0,48.0,-100.00,South,190,0.0,0.0,99,-99.99,,,-99.99,,2013-04-29 08:52:00,
2013-04-29 04:01:00,49.0,48.0,-100.00,South,190,0.0,0.0,99,-99.99,,,-99.99,,2013-04-29 09:01:00,
2013-04-29 04:12:00,48.0,48.0,-100.00,SSW,200,0.0,0.0,99,-99.99,,,-99.99,,2013-04-29 09:12:00,
2013-04-29 04:21:00,48.0,48.0,-100.00,South,190,0.0,0.0,99,-99.99,,,-99.99,,2013-04-29 09:21:00,
2013-04-29 04:33:00,48.0,48.0,-100.00,South,190,0.0,0.0,99,-99.99,,,-99.99,,2013-04-29 09:33:00,
2013-04-29 04:42:00,48.0,48.0,-100.00,SSW,200,0.0,0.0,99,-99.99,,,-99.99,,2013-04-29 09:42:00,
2013-04-29 04:53:00,48.0,48.0,-100.00,South,180,0.0,0.0,99,-99.99,,,-99.99,,2013-04-29 09:53:00,
2013-04-29 05:02:00,48.0,48.0,-100.00,South,180,0.0,0.0,99,-99.99,,,-99.99,,2013-04-29 10:02:00,
2013-04-29 05:12:00,48.0,48.0,-100.00,South,185,0.0,0.0,99,-99.99,,,-99.99,,2013-04-29 10:12:00,
2013-04-29 05:23:00,47.0,47.0,-100.00,SSE,160,0.0,0.0,99,-99.99,,,-99.99,,2013-04-29 10:23:00,
2013-04-29 05:32:00,47.0,47.0,-100.00,SSE,160,0.0,0.0,99,-99.99,,,-99.99,,2013-04-29 10:32:00,
2013-04-29 05:42:00,47.0,47.0,-100.00,SSE,160,0.0,0.0,99,-99.99,,,-99.99,,2013-04-29 10:42:00,
2013-04-29 05:52:00,47.0,47.0,-100.00,South,180,0.0,0.0,99,-99.99,,,-99.99,,2013-04-29 10:52:00,
2013-04-29 06:03:00,47.0,47.0,-100.00,South,180,0.0,0.0,99,-99.99,,,-99.99,,2013-04-29 11:03:00,
2013-04-29 06:12:00,48.0,47.0,-100.00,South,180,0.0,0.0,99,-99.99,,,-99.99,,2013-04-29 11:12:00,
2013-04-29 06:21:00,48.0,47.0,-100.00,SSE,165,0.0,0.0,99,-99.99,,,-99.99,,2013-04-29 11:21:00,
2013-04-29 06:32:00,48.0,47.0,-100.00,SSE,165,0.0,0.0,99,-99.99,,,-99.99,,2013-04-29 11:32:00,
2013-04-29 06:42:00,48.0,47.0,-100.00,South,180,0.0,0.0,99,-99.99,,,-99.99,,2013-04-29 11:42:00,
2013-04-29 06:52:00,48.0,47.0,-100.00,South,170,0.0,0.0,99,-99.99,,,-99.99,,2013-04-29 11:52:00,
2013-04-29 07:01:00,48.0,47.0,-100.00,South,170,0.0,0.0,99,-99.99,,,-99.99,,2013-04-29 12:01:00,
2013-04-29 07:12:00,48.0,48.0,-100.00,South,175,0.0,0.0,99,-99.99,,,-99.99,,2013-04-29 12:12:00,
2013-04-29 07:22:00,48.0,48.0,-100.00,South,190,0.0,0.0,99,-99.99,,,-99.99,,2013-04-29 12:22:00,
2013-04-29 07:32:00,48.0,48.0,-100.00,South,190,0.0,0.0,99,-99.99,,,-99.99,,2013-04-29 12:32:00,
2013-04-29 07:42:00,48.0,48.0,-100.00,South,190,0.0,0.0,99,-99.99,,,-99.99,,2013-04-29 12:42:00,
2013-04-29 07:52:00,50.0,50.0,-100.00,SSE,165,0.0,0.0,99,-99.99,,,-99.99,,2013-04-29 12:52:00,
2013-04-29 08:01:00,50.0,50.0,-100.00,SSE,165,0.0,0.0,99,-99.99,,,-99.99,,2013-04-29 13:01:00,
2013-04-29 08:11:00,50.0,50.0,-100.00,SSE,165,0.0,0.0,99,-99.99,,,-99.99,,2013-04-29 13:11:00,
2013-04-29 08:21:00,51.0,51.0,-100.00,South,185,0.0,0.0,99,-99.99,,,-99.99,,2013-04-29 13:21:00,
2013-04-29 08:31:00,51.0,51.0,-100.00,South,185,0.0,0.0,99,-99.99,,,-99.99,,2013-04-29 13:31:00,
2013-04-29 08:42:00,53.0,53.0,-100.00,South,170,0.0,0.0,99,-99.99,,,-99.99,,2013-04-29 13:42:00,
2013-04-29 08:52:00,54.0,54.0,-100.00,South,190,0.0,0.0,99,-99.99,,,-99.99,,2013-04-29 13:52:00,
2013-04-29 09:02:00,54.0,54.0,-100.00,South,190,0.0,0.0,99,-99.99,,,-99.99,,2013-04-29 14:02:00,
2013-04-29 09:11:00,56.0,56.0,-100.00,SSW,195,0.0,0.0,99,-99.99,,,-99.99,,2013-04-29 14:11:00,
2013-04-29 09:21:00,58.0,57.0,-100.00,South,185,0.0,0.0,99,-99.99,,,-99.99,,2013-04-29 14:21:00,
2013-04-29 09:31:00,63.0,58.0,-100.00,SSW,195,0.0,0.0,86,-99.99,,,-99.99,,2013-04-29 14:31:00,
2013-04-29 09:32:00,58.0,57.0,-100.00,South,185,0.0,0.0,99,-99.99,,,-99.99,,2013-04-29 14:32:00,
2013-04-29 09:42:00,60.0,59.0,-100.00,SSW,195,0.0,0.0,97,-99.99,,,-99.99,,2013-04-29 14:42:00,
2013-04-29 09:52:00,61.0,58.0,-100.00,SSW,195,0.0,0.0,89,-99.99,,,-99.99,,2013-04-29 14:52:00,
2013-04-29 10:01:00,61.0,58.0,-100.00,SSW,195,0.0,0.0,89,-99.99,,,-99.99,,2013-04-29 15:01:00,
2013-04-29 10:12:00,63.0,58.0,-100.00,SSW,195,0.0,0.0,86,-99.99,,,-99.99,,2013-04-29 15:12:00,
2013-04-29 10:21:00,63.0,58.0,-100.00,SSW,195,0.0,0.0,86,-99.99,,,-99.99,,2013-04-29 15:21:00,
2013-04-29 10:43:00,65.0,59.0,-100.00,South,170,0.0,0.0,80,-99.99,,,-99.99,,2013-04-29 15:43:00,
2013-04-29 10:53:00,67.0,59.0,-100.00,SSW,205,0.0,0.0,77,-99.99,,,-99.99,,2013-04-29 15:53:00,
2013-04-29 11:03:00,67.0,59.0,-100.00,SSW,205,0.0,0.0,77,-99.99,,,-99.99,,2013-04-29 16:03:00,
2013-04-29 11:12:00,68.0,60.0,-100.00,South,185,0.0,0.0,76,-99.99,,,-99.99,,2013-04-29 16:12:00,
2013-04-29 11:23:00,68.0,60.0,-100.00,South,185,0.0,0.0,75,-99.99,,,-99.99,,2013-04-29 16:23:00,
2013-04-29 11:33:00,68.0,60.0,-100.00,South,185,0.0,0.0,75,-99.99,,,-99.99,,2013-04-29 16:33:00,
2013-04-29 11:42:00,70.0,60.0,-100.00,SSW,195,0.0,0.0,72,-99.99,,,-99.99,,2013-04-29 16:42:00,
2013-04-29 11:52:00,71.0,60.0,-100.00,South,190,0.0,0.0,70,-99.99,,,-99.99,,2013-04-29 16:52:00,
2013-04-29 12:02:00,71.0,60.0,-100.00,South,190,0.0,0.0,70,-99.99,,,-99.99,,2013-04-29 17:02:00,
2013-04-29 12:12:00,71.0,61.0,-100.00,South,190,0.0,0.0,69,-99.99,,,-99.99,,2013-04-29 17:12:00,
2013-04-29 12:22:00,72.0,61.0,-100.00,SSW,200,0.0,0.0,68,-99.99,,,-99.99,,2013-04-29 17:22:00,
2013-04-29 12:32:00,72.0,61.0,-100.00,SSW,200,0.0,0.0,68,-99.99,,,-99.99,,2013-04-29 17:32:00,
2013-04-29 12:42:00,73.0,62.0,-100.00,South,190,0.0,0.0,67,-99.99,,,-99.99,,2013-04-29 17:42:00,
2013-04-29 12:52:00,74.0,62.0,-100.00,SSW,205,0.0,0.0,66,-99.99,,,-99.99,,2013-04-29 17:52:00,
2013-04-29 13:01:00,74.0,62.0,-100.00,SSW,205,0.0,0.0,66,-99.99,,,-99.99,,2013-04-29 18:01:00,
2013-04-29 13:13:00,74.0,62.0,-100.00,SSW,205,0.0,0.0,66,-99.99,,,-99.99,,2013-04-29 18:13:00,
2013-04-29 14:21:00,78.0,64.0,-100.00,SSE,165,0.0,0.0,62,-99.99,,,-99.99,,2013-04-29 19:21:00,
2013-04-29 14:32:00,78.0,64.0,-100.00,SSE,165,0.0,0.0,62,-99.99,,,-99.99,,2013-04-29 19:32:00,
2013-04-29 14:41:00,78.0,64.0,-100.00,SSE,165,0.0,0.0,62,-99.99,,,-99.99,,2013-04-29 19:41:00,
2013-04-29 15:12:00,80.0,64.0,-100.00,SSW,195,0.0,0.0,58,-99.99,,,-99.99,,2013-04-29 20:12:00,
2013-04-29 15:21:00,80.0,63.0,-100.00,South,185,0.0,0.0,57,-99.99,,,-99.99,,2013-04-29 20:21:00,
2013-04-29 15:32:00,80.0,63.0,-100.00,South,185,0.0,0.0,57,-99.99,,,-99.99,,2013-04-29 20:32:00,
2013-04-29 15:42:00,80.0,62.0,-100.00,South,190,0.0,0.0,54,-99.99,,,-99.99,,2013-04-29 20:42:00,
2013-04-29 15:52:00,79.0,62.0,-100.00,South,190,0.0,0.0,57,-99.99,,,-99.99,,2013-04-29 20:52:00,
2013-04-29 16:01:00,79.0,62.0,-100.00,South,190,0.0,0.0,57,-99.99,,,-99.99,,2013-04-29 21:01:00,
2013-04-29 16:11:00,80.0,62.0,-100.00,South,185,0.0,0.0,56,-99.99,,,-99.99,,2013-04-29 21:11:00,
2013-04-29 16:21:00,79.0,62.0,-100.00,South,180,0.0,0.0,57,-99.99,,,-99.99,,2013-04-29 21:21:00,
2013-04-29 16:33:00,79.0,62.0,-100.00,South,180,0.0,0.0,57,-99.99,,,-99.99,,2013-04-29 21:33:00,
2013-04-29 16:42:00,79.0,62.0,-100.00,South,180,0.0,0.0,57,-99.99,,,-99.99,,2013-04-29 21:42:00,
2013-04-29 16:53:00,79.0,62.0,-100.00,SSW,200,0.0,0.0,56,-99.99,,,-99.99,,2013-04-29 21:53:00,
2013-04-29 17:02:00,79.0,62.0,-100.00,SSW,200,0.0,0.0,56,-99.99,,,-99.99,,2013-04-29 22:02:00,
2013-04-29 17:13:00,78.0,61.0,-100.00,SSW,195,0.0,0.0,56,-99.99,,,-99.99,,2013-04-29 22:13:00,
2013-04-29 17:23:00,79.0,62.0,-100.00,SSW,200,0.0,0.0,56,-99.99,,,-99.99,,2013-04-29 22:23:00,
2013-04-29 17:32:00,79.0,62.0,-100.00,SSW,200,0.0,0.0,56,-99.99,,,-99.99,,2013-04-29 22:32:00,
2013-04-29 17:42:00,78.0,61.0,-100.00,SSW,195,0.0,0.0,56,-99.99,,,-99.99,,2013-04-29 22:42:00,
2013-04-29 17:53:00,78.0,62.0,-100.00,SSW,195,0.0,0.0,57,-99.99,,,-99.99,,2013-04-29 22:53:00,
2013-04-29 18:02:00,78.0,62.0,-100.00,SSW,195,0.0,0.0,57,-99.99,,,-99.99,,2013-04-29 23:02:00,
2013-04-29 18:11:00,78.0,61.0,-100.00,South,190,0.0,0.0,57,-99.99,,,-99.99,,2013-04-29 23:11:00,
2013-04-29 18:22:00,78.0,62.0,-100.00,SSW,195,0.0,0.0,58,-99.99,,,-99.99,,2013-04-29 23:22:00,
2013-04-29 18:32:00,78.0,62.0,-100.00,SSW,195,0.0,0.0,58,-99.99,,,-99.99,,2013-04-29 23:32:00,
2013-04-29 18:42:00,77.0,61.0,-100.00,SSW,195,0.0,0.0,58,-99.99,,,-99.99,,2013-04-29 23:42:00,
2013-04-29 18:52:00,77.0,61.0,-100.00,SSW,195,0.0,0.0,58,-99.99,,,-99.99,,2013-04-29 23:52:00,
2013-04-29 19:01:00,77.0,61.0,-100.00,SSW,195,0.0,0.0,58,-99.99,,,-99.99,,2013-04-30 00:01:00,
2013-04-29 19:11:00,76.0,61.0,-100.00,SSW,195,0.0,0.0,59,-99.99,,,-99.99,,2013-04-30 00:11:00,
2013-04-29 19:21:00,75.0,61.0,-100.00,SSW,195,0.0,0.0,61,-99.99,,,-99.99,,2013-04-30 00:21:00,
2013-04-29 19:31:00,74.0,61.0,-100.00,South,190,0.0,0.0,64,-99.99,,,-99.99,,2013-04-30 00:31:00,
2013-04-29 19:32:00,75.0,61.0,-100.00,SSW,195,0.0,0.0,61,-99.99,,,-99.99,,2013-04-30 00:32:00,
2013-04-29 19:42:00,75.0,61.0,-100.00,SSW,195,0.0,0.0,61,-99.99,,,-99.99,,2013-04-30 00:42:00,
2013-04-29 20:11:00,74.0,61.0,-100.00,South,190,0.0,0.0,64,-99.99,,,-99.99,,2013-04-30 01:11:00,
2013-04-29 20:21:00,74.0,61.0,-100.00,South,190,0.0,0.0,64,-99.99,,,-99.99,,2013-04-30 01:21:00,
2013-04-29 20:52:00,71.0,62.0,-100.00,SSW,195,0.0,0.0,72,-99.99,,,-99.99,,2013-04-30 01:52:00,
2013-04-29 21:01:00,71.0,62.0,-100.00,SSW,195,0.0,0.0,72,-99.99,,,-99.99,,2013-04-30 02:01:00,
2013-04-29 21:11:00,71.0,62.0,-100.00,SSW,195,0.0,0.0,72,-99.99,,,-99.99,,2013-04-30 02:11:00,
2013-04-29 21:21:00,70.0,63.0,-100.00,South,185,0.0,0.0,78,-99.99,,,-99.99,,2013-04-30 02:21:00,
2013-04-29 21:31:00,70.0,63.0,-100.00,South,185,0.0,0.0,78,-99.99,,,-99.99,,2013-04-30 02:31:00,
2013-04-29 21:41:00,70.0,63.0,-100.00,South,185,0.0,0.0,78,-99.99,,,-99.99,,2013-04-30 02:41:00,
2013-04-29 22:21:00,69.0,63.0,-100.00,SSW,200,0.0,0.0,82,-99.99,,,-99.99,,2013-04-30 03:21:00,
2013-04-29 22:33:00,69.0,63.0,-100.00,SSW,200,0.0,0.0,82,-99.99,,,-99.99,,2013-04-30 03:33:00,
2013-04-29 22:42:00,69.0,63.0,-100.00,SSW,200,0.0,0.0,82,-99.99,,,-99.99,,2013-04-30 03:42:00,